Location: Cambridge (historical)
(38.6883°N, 119.0140°W)
Time: 20:53:28
(UTC+00:00)

Tianhe-1 - Visible Passes

Search period start: 22 June 2021 00:00
Search period end: 02 July 2021 00:00
Orbit: 375 x 385 km, 41.5° (Epoch: 22 June)

Date Brightness Start Highest point End Pass type
(mag) Time Alt. Az. Time Alt. Az. Time Alt. Az.
22 Jun 2.7 10:05:34 27° ESE 10:05:34 27° ESE 10:07:20 10° E visible
22 Jun 1.6 11:37:57 10° W 11:41:03 57° N 11:44:11 10° ENE visible
23 Jun 1.1 10:39:14 49° W 10:39:56 77° NNW 10:43:06 10° ENE visible
24 Jun 3.3 09:40:41 21° E 09:40:41 21° E 09:41:52 10° ENE visible
24 Jun 1.9 11:12:46 12° W 11:15:35 49° N 11:18:39 10° ENE visible
25 Jun 1.5 10:14:08 58° NNW 10:14:11 58° N 10:17:18 10° ENE visible
25 Jun 1.8 11:48:03 10° WNW 11:51:07 52° N 11:54:13 10° E visible
26 Jun 4.0 09:15:26 13° ENE 09:15:26 13° ENE 09:15:50 10° ENE visible
26 Jun 2.0 10:47:32 18° WNW 10:49:36 47° N 10:52:39 10° ENE visible
27 Jun 2.5 09:48:48 37° NE 09:48:48 37° NE 09:51:00 10° ENE visible
27 Jun 1.4 11:21:46 10° WNW 11:24:53 64° NNE 11:28:00 10° E visible
28 Jun 1.8 10:22:12 36° NW 10:23:08 51° N 10:26:12 10° E visible
28 Jun 1.1 11:56:48 10° WNW 11:59:53 57° SSW 12:02:57 10° ESE visible
29 Jun 3.9 09:23:41 14° ENE 09:23:41 14° ENE 09:24:17 10° ENE visible
29 Jun 1.0 10:55:47 17° WNW 10:58:06 87° NNE 11:01:13 10° ESE visible
30 Jun 2.8 09:57:36 27° E 09:57:36 27° E 09:59:14 10° E visible
30 Jun 1.6 11:29:51 10° W 11:32:45 35° SSW 11:35:38 10° SE visible
01 Jul 2.3 10:32:06 30° SE 10:32:06 30° SE 10:33:52 10° ESE visible
